User: anonymous   Login
Location: Bruderhein
(53.8035°N, 112.9265°W)
Time: 02:34:09
(UTC+00:00)
Language:

KKS-1 - Orbit

View from above orbital plane
View from above orbital plane
View from above satellite
View from above satellite

Ground track
Ground track

The orbit data is extracted from the following two-line orbital elements,

1 33499U 09002H   24106.55312810  .00002886  00000-0  40355-3 0  9991
2 33499  98.1440   7.4750 0008099 342.6533  17.4399 14.78386654818867
Epoch (UTC): 15 April 2024 13:16:30
Eccentricity: 0.0008099
inclination: 98.1440°
perigee height: 629 km
apogee height: 640 km
right ascension of ascending node: 7.4750°
argument of perigee: 342.6533°
revolutions per day: 14.78386654
mean anomaly at epoch: 17.4399°
orbit number at epoch: 81886

The dashed part of the orbit path shows where the satellite is in the earth's shadow,  

DLR